Other Public Products
Issued by NWS Grand Forks, ND

Home | Current Version | Previous Version | Text Only | Print | Product List | Glossary Off
Versions: 1 2 3 4 5 6 7 8 9 10 11 12 13 14 15 16 17 18 19 20 21 22 23 24 25 26 27 28 29 30 31 32 33 34 35 36 37 38 39 40 41 42 43 44 45 46 47 48 49 50

000
FPUS83 KFGF 260710
OPUFGF
PRAIRIE TO PINES WEATHER ROUNDUP
NATIONAL WEATHER SERVICE EASTERN NORTH DAKOTA/GRAND FORKS ND
200 AM CDT SUN APR 26 2015

 **SATELLITE DATA USED TO AUGMENT SKY COVER AT AUTOMATED STATIONS**
 *****  WEATHER ACROSS EASTERN NORTH DAKOTA  *****

CITY           SKY/WX    TMP DP  RH WIND       PRES   REMARKS
GRAND FORKS    CLEAR     37  29  72 SW7       30.01R
GRAND FORKS AF CLEAR     38  29  72 S7        30.01R
GRAND CITY NWS   N/A     43 N/A N/A S3          N/A
BUXTON         NOT AVBL
DEVILS LAKE    CLOUDY    45  39  81 SE5       29.98R
FARGO          CLEAR     46  29  51 SE7       30.01R
WAHPETON ARPT  SUNNY     39  30  70 E5        30.01S
$$

 *****  WEATHER ACROSS CENTRAL AND WESTERN NORTH DAKOTA  *****

CITY           SKY/WX    TMP DP  RH WIND       PRES   REMARKS
JAMESTOWN      CLOUDY    47  40  76 CALM      29.97R
BISMARCK       CLOUDY    48  43  82 E7        29.94R
MINOT          CLOUDY    47  41  80 SE10      29.91R
MINOT AFB      CLOUDY    47  47  99 S12       29.90R
GARRISON         N/A     46  43  89 SE8       29.92R
WILLISTON      CLOUDY    43  39  86 W12       29.90R
DICKINSON      LGT RAIN  44  42  93 W6        29.90R
HETTINGER      CLOUDY    44  42  93 NW7       29.92R
$$

 *****  OTHER OBSERVATIONS NORTHEAST NORTH DAKOTA  *****

CITY           SKY/WX    TMP DP  RH WIND       PRES   REMARKS
WALHALLA       FAIR      39  36  87 SE3       30.01R
LANGDON        FAIR      37  34  87 SE8       30.00R
CAVALIER       FAIR      41  32  70 SE8       30.01R
GRAFTON        FAIR      39  30  70 E10       30.02R
CANDO          CLOUDY    46  39  76 SE7       29.98R
FORT TOTTEN      N/A     47  39  74 SE6       29.95S
ROLLA          CLOUDY    46  41  81 S6        29.97R
RUGBY          NOT AVBL
 ***** THE ABOVE OBSERVATIONS ARE NON NWS ARE NOT QUALITY
        CONTROLLED AND MAY MIS-REPORT RAIN FOR SNOW...
$$

 *****  OTHER OBSERVATIONS SOUTHEAST NORTH DAKOTA *****

CITY           SKY/WX    TMP DP  RH WIND       PRES   REMARKS
COOPERSTOWN    NOT AVBL
VALLEY CITY    CLOUDY    39  39 100 SE3       30.00R
OAKES            N/A     48  45  87 SE9       29.98R
GWINNER        SUNNY     37  37 100 NE6       30.01R
BUFFALO        NOT AVBL
WYNDMERE       NOT AVBL
 ***** THE ABOVE OBSERVATIONS ARE NON NWS ARE NOT QUALITY
       CONTROLLED AND MAY MIS-REPORT RAIN FOR SNOW...
$$

  *****  WEATHER ACROSS NORTHERN MINNESOTA  *****

CITY           SKY/WX    TMP DP  RH WIND       PRES   REMARKS
FLAG ISLAND    CLEAR     45  27  49 E6        30.06R
WARROAD        CLEAR     36  32  87 E3        30.06S
ROSEAU         CLEAR     39  30  70 E5        30.04S
HALLOCK        CLEAR     48  27  43 SE12      30.02R
THF RVR FALLS  CLEAR     43  28  56 E5        30.03R
HALSTAD        NOT AVBL
FOSSTON        CLEAR     36  27  69 E3        30.02S
BAUDETTE       CLEAR     36  29  75 E5        30.06R
WASKISH        CLEAR     34  27  75 CALM      30.06R
CROOKSTON      CLEAR     39  28  65 E5        30.03R
$$
  *****  WEATHER ACROSS CENTRAL AND WEST MINNESOTA  *****

CITY           SKY/WX    TMP DP  RH WIND       PRES   REMARKS
BEMIDJI        CLEAR     36  27  68 SE5       30.05R
PARK RAPIDS    CLEAR     41  13  31 E8        30.03R
WADENA         CLEAR     36  21  55 CALM      30.04R
DETROIT LAKES  CLEAR     43  27  52 SE7       30.04R
MOORHEAD       CLEAR     39  28  65 CALM      30.03R
FERGUS FALLS   CLEAR     45  27  49 E6        30.04R
ELBOW LAKE     FAIR      43  27  53 E10       30.01S
MORRIS MN      CLEAR     39  30  70 SE8       30.02R
STAPLES        CLEAR     37   7  28 CALM      30.04S
WHEATON        CLEAR     34  28  80 E7        30.03R
$$
  *****  WEATHER ELSEWHERE ACROSS MINNESOTA  *****

CITY           SKY/WX    TMP DP  RH WIND       PRES   REMARKS
DULUTH         CLEAR     34  13  41 CALM      30.05S
INTRNTL FALLS  CLEAR     32  23  69 CALM      30.07R
ELY            CLEAR     25  18  74 CALM      30.08S
CLOQUET        CLEAR     28  18  64 CALM      30.05F
BRAINERD       CLEAR     34  11  38 CALM      30.05R
HIBBING        CLEAR     25  16  68 NW3       30.07R
ALEXANDRIA     CLEAR     40  20  44 E10       30.03R
SAINT CLOUD    CLEAR     36  20  52 NE6       30.03R
MINNEAPOLIS    CLEAR     42  21  43 NE6       30.01R
$$

  *****  WEATHER ACROSS SOUTH DAKOTA  *****

CITY           SKY/WX    TMP DP  RH WIND       PRES   REMARKS
SIOUX FALLS    PTCLDY    42  37  82 E5        29.96S
BROOKINGS      CLEAR     39  36  87 CALM      29.99R
WATERTOWN      CLEAR     41  37  86 SE3       29.98R
HURON          MOCLDY    48  39  71 SE9       29.95R
SISSETON         N/A     39  36  89 SW7       30.01R
ABERDEEN       CLOUDY    50  41  71 E6        29.97R
MITCHELL       MOCLDY    45  41  86 E6        29.95S
PIERRE         CLOUDY    52  44  74 SE12      29.89S
MOBRIDGE       CLOUDY    52  43  71 SE16      29.89S
RAPID CITY     CLOUDY    45  41  86 N21       29.87S
$$

  *****  SOME WEATHER IN NEARBY STATES *****

CITY           SKY/WX    TMP DP  RH WIND       PRES   REMARKS
GLASGOW MT     MOCLDY    38  34  85 NW12      29.92R
GREAT FALLS MT CLOUDY    35  29  78 NE15      29.98R
CHEYENNE WY    RAIN      42  39  89 E12       29.82R FOG
SCOTTSBLUFF NE LGT RAIN  50  47  89 E14       29.82F
OMAHA NE       PTCLDY    47  41  80 NE6       29.93R
DES MOINES IA  CLOUDY    48  38  68 E7        29.93R
DAVENPORT IA   CLEAR     39  33  79 NE6       29.92R
CHICAGO IL     CLEAR     38  29  70 N7        29.88R
EAU CLAIRE WI  CLEAR     35  22  58 NE3       29.99R
LA CROSSE WI   CLEAR     40  26  57 CALM      29.99R
$$

  *****  SOME NATIONAL WEATHER *****

CITY           SKY/WX    TMP DP  RH WIND       PRES   REMARKS
LA GUARDIA NY  MOCLDY    47  33  58 NE6       29.67F
RALEIGH NC     FOG       47  45  93 NE12      29.62F VSB 1/2
ATLANTA GA     MOCLDY    66  63  88 W10       29.64F
NEW ORLEANS LA PTCLDY    68  64  87 CALM      29.74F
OKLAHOMA CITY  PTCLDY    64  53  67 E15       29.68S
ALBUQUERQUE NM LGT RAIN  59  28  30 SW9       29.81R
SALT LAKE CITY RAIN      43  40  89 W12       29.74S
LOS ANGELES CA CLEAR     57  50  77 W6        29.92R
BOISE ID       CLEAR     42  32  67 NW13      29.91R
SEATTLE WA     CLEAR     44  37  76 SE8       30.09S
$$

*** WEATHER ACROSS MANITOBA...SASKATCHEWAN AND ONTARIO ***
                ***ONTARIO***

CITY           SKY/WX    TMP DP  RH WIND       PRES   REMARKS
GERALDTON      PTCLDY    32  25  74 N5        30.10R
THUNDER BAY    CLEAR     27  21  80 SW5       30.10R WCI  21
SIOUX LOOKOUT  CLEAR     25  21  86 E2        30.12R
TORONTO        PTCLDY    36  28  75 N14       29.80S
BIG TROUT LK   CLEAR     27  25  93 E3        30.22S
PICKLE LAKE    NOT AVBL
DRYDEN         CLEAR     34  23  64 NE5       30.10R
KENORA         PTCLDY    41  23  48 E7        30.09R
$$
                *** MANITOBA***

CITY           SKY/WX    TMP DP  RH WIND       PRES   REMARKS
BRANDON        CLOUDY    48  41  76 SE6       29.96R
DAUPHIN        MOCLDY    41  36  81 E3        29.97R
ISLAND LAKE    PTCLDY    34  16  47 SE7       30.17R
PILOT MOUND      N/A     41  36  81 E9          N/A
THE PAS        LGT RAIN  34  28  80 NE6       30.08S
THOMPSON       CLOUDY    32  30  93 N6        30.19S
WINNIPEG       CLEAR     46  28  49 SE13      30.04R
LYNN LAKE      CLOUDY    27  19  74 NE5       30.21R WCI  21
CHURCHILL      CLEAR     19  18  93 SE6       30.31R WCI  11
GILLAM         CLOUDY    32  21  64 MISG      30.23R
$$
                ***SASKATCHEWAN***

CITY           SKY/WX    TMP DP  RH WIND       PRES   REMARKS
ESTEVAN        LGT RAIN  46  45  93 SE14      29.86R
KINDERSLEY     LGT SNOW  30  30 100 N10       29.97R WCI  21
LLOYDMINSTER   MOCLDY    32  19  59 N6        30.04R
PRINCE ALBERT  LGT SNOW  32  30  93 NE18      29.98F WCI  20
REGINA         CLOUDY    37  37 100 SW14G21   29.80S
YORKTON        CLOUDY    46  37  71 E16G24    29.87F


USA.gov is the U.S. government's official web portal to all federal, state and local government web resources and services.